Regional Weather Roundup
Issued by NWS

Home | Current Version | Previous Version | Graphics & Text | Print | Product List | Glossary On
Versions: 1 2 3 4 5 6 7 8 9 10 11 12 13 14 15 16 17 18 19 20 21 22 23 24 25 26 27 28 29 30 31 32 33 34 35 36 37 38 39 40 41 42 43 44 45 46 47 48 49 50
833
ASUS43 KMPX 290801
RWRMN
WEATHER ROUNDUP FOR MINNESOTA
NATIONAL WEATHER SERVICE TWIN CITIES/CHANHASSEN MN
300 AM CDT THU SEP 29 2016


NOTE: "FAIR" INDICATES FEW OR NO CLOUDS BELOW 12,000 FEET WITH NO
SIGNIFICANT WEATHER AND/OR OBSTRUCTIONS TO VISIBILITY. N/A MEANS
CURRENT SKY AND/OR WEATHER CONDITIONS ARE NOT AVAILABLE.

MNZ060>063-068>070-290900-
   Twin Cities Metro

CITY           SKY/WX    TMP DP  RH WIND       PRES   REMARKS
TWIN CITIES    CLEAR     49  46  90 N6        30.40R
ST PAUL        CLEAR     49  46  90 NW7       30.40R
CRYSTAL        CLEAR     47  44  90 CALM      30.39R
BLAINE         CLEAR     48  48 100 N3        30.40S
LAKEVILLE      CLEAR     46  46 100 CALM      30.39S
EDEN PRAIRIE   CLEAR     50  47  89 N6        30.38R
LAKEVILLE      CLEAR     46  46 100 CALM      30.39S
SOUTH ST PAUL  CLEAR     51  47  87 CALM      30.39S
LAKE ELMO      FAIR      45  45 100 CALM      30.40S
$$
MNZ001>005-007-008-013>017-022>024-027-028-290900-
   Northwest Minnesota

CITY           SKY/WX    TMP DP  RH WIND       PRES   REMARKS
BEMIDJI        CLOUDY    49  47  93 CALM      30.44S
HALLOCK        CLEAR     43  43 100 SE5       30.44S
ROSEAU         CLOUDY    48  45  87 CALM      30.46R
THIEF RVR FALL CLOUDY    47  45  93 N3        30.46R
CROOKSTON      CLOUDY    48  46  93 CALM      30.45R
FOSSTON        CLOUDY    43  41  93 E3        30.45S
DETROIT LAKES  PTCLDY    46  45  93 E5        30.44S
MOORHEAD       CLEAR     45  43  93 E3        30.44S
PARK RAPIDS    CLOUDY    50  44  80 CALM      30.44R
MAHNOMEN       CLOUDY    44  43  97 E5        30.44S
$$
MNZ006-009>011-018-025>026-290900-
   North Central Minnesota

CITY           SKY/WX    TMP DP  RH WIND       PRES   REMARKS
BAUDETTE       CLOUDY    48  47  96 CALM      30.46R
FLAG ISLAND    CLOUDY    55  48  76 S3        30.45R
INTL FALLS     CLOUDY    52  49  89 CALM      30.46R
WASKISH        CLOUDY    48  48 100 CALM      30.46R
BIG FORK       CLOUDY    52  50  93 CALM      30.45S
GRAND RAPIDS   CLOUDY    52  50  93 CALM      30.46R
ORR            CLOUDY    52  48  87 CALM      30.43S
COOK           CLOUDY    52  50  93 CALM      30.45S
WALKER         CLOUDY    50  47  89 CALM      30.44S
$$
MNZ012-019>021-037-290900-
   Northeast Minnesota

CITY           SKY/WX    TMP DP  RH WIND       PRES   REMARKS
DULUTH         CLOUDY    51  50  96 CALM      30.43R
ELY            CLOUDY    52  50  93 CALM      30.45R
HIBBING        CLOUDY    50  50 100 CALM      30.44R
EVELETH        CLOUDY    53  50  90 CALM      30.45R
DULUTH HARBOR  CLOUDY    55  52  88 CALM      30.44R
TWO HARBORS    CLOUDY    55  50  82 N3        30.42R
SILVER BAY     CLOUDY    52  50  93 CALM      30.42R
GRAND MARAIS     N/A     55  48  77 N6        30.43R
G MARAIS ARPRT CLOUDY    48  43  81 N6        30.45R
$$
MNZ029>031-032-039>041-046>048-054>057-064-290900-
   West Central Minnesota

CITY           SKY/WX    TMP DP  RH WIND       PRES   REMARKS
FERGUS FALLS   CLEAR     46  45  93 E5        30.45S
MORRIS         CLOUDY    48  45  87 CALM      30.42S
ALEXANDRIA     MOCLDY    45  45 100 CALM      30.44R
ELBOW LAKE     FAIR      50  46  86 SE3       30.43S
WADENA         CLOUDY    50  45  81 CALM      30.43S
GLENWOOD       CLOUDY    48  45  87 E3        30.44R
BENSON         CLEAR     43  41  93 E3        30.43R
ORTONVILLE     CLOUDY    45  41  87 CALM      30.42S
MADISON        CLOUDY    45  45 100 CALM      30.42S
WILLMAR        FAIR      46  45  93 N3        30.44R
$$
MNZ033>034-036-042>043-049>051-058-059-290900-
   Central Minnesota

CITY           SKY/WX    TMP DP  RH WIND       PRES   REMARKS
ST CLOUD       CLEAR     44  44 100 CALM      30.43R
SAUK CENTRE    CLOUDY    52  47  84 N3        30.44R
PAYNESVILLE    CLEAR     45  45 100 CALM      30.43S FOG
AITKIN         CLOUDY    54  48  82 CALM      30.42S
PINE RIVER     CLOUDY    52  50  93 CALM      30.46R
BRAINERD       CLOUDY    52  50  93 CALM      30.44R
STAPLES        CLOUDY    52  46  82 CALM      30.43S
LONG PRAIRIE   CLOUDY    52  46  82 CALM      30.44S
LITTLE FALLS   CLOUDY    52  46  82 CALM      30.44R
LITCHFIELD     CLEAR     50  48  93 CALM      30.43R
BUFFALO        CLEAR     48  46  90 CALM      30.42S
MAPLE LAKE     CLEAR     48  47  96 N3        30.43R
HUTCHINSON     CLEAR     47  47  97 CALM      30.42S
$$
MNZ037-044-045-052-053-290900-
   East Central Minnesota

CITY           SKY/WX    TMP DP  RH WIND       PRES   REMARKS
PRINCETON      FOG       45  43  93 CALM      30.42S VSB 1/2
MORA           CLEAR     45  45 100 CALM      30.44R
CAMBRIDGE      CLEAR     46  45  93 NW3       30.40S
MOOSE LAKE     CLOUDY    50  46  87 CALM      30.41S
HINCKLEY       FAIR      46  46 100 N3        30.43R
CLOQUET        CLOUDY    52  48  87 CALM      30.43R
MCGREGOR       CLOUDY    52  50  93 CALM      30.44R
$$
MNZ071>073-080-081-089-090-097-098-290900-
   Southwest Minnesota

CITY           SKY/WX    TMP DP  RH WIND       PRES   REMARKS
MONTEVIDEO     CLEAR     45  43  93 CALM      30.43S
GRANITE FALLS  CLEAR     45  43  95 NE3       30.43S
CANBY          CLOUDY    42  41  95 CALM      30.44S
MARSHALL       CLOUDY    40  39  97 W3        30.42R
REDWOOD FALLS  CLEAR     50  45  83 NE5       30.41R
OLIVIA         CLEAR     46  45  93 NE3       30.41S
PIPESTONE      CLOUDY    46  43  87 CALM      30.41R
WINDOM         CLEAR     46  45  93 N3        30.40S
WORTHINGTON    CLEAR     43  42  97 N7        30.41R
JACKSON        CLEAR     45  43  93 N3        30.39S
TRACY          CLOUDY    44  44  97 CALM      30.42S
$$
MNZ065>067-074>077-082>085-091>093-290900-
   South Central Minnesota

CITY           SKY/WX    TMP DP  RH WIND       PRES   REMARKS
MANKATO        CLEAR     47  46  97 N5        30.39R
ST JAMES       CLEAR     45  45 100 NW3       30.40S
FAIRMONT       CLEAR     47  46  97 N7        30.38S
GLENCOE        CLEAR     48  48 100 N3        30.40S
FARIBAULT      CLEAR     48  46  93 CALM      30.38S
OWATONNA       CLEAR     46  45  93 NW3       30.37S
WASECA         CLEAR     50  46  87 N6        30.38S
ALBERT LEA     CLEAR     48  48 100 N5        30.36S
$$
MNZ078>079-086>088-094>096-290900-
   Southeast Minnesota

CITY           SKY/WX    TMP DP  RH WIND       PRES   REMARKS
ROCHESTER      CLOUDY    51  50  96 N8        30.36R
RED WING       CLEAR     46  46 100 CALM      30.36S
DODGE CENTER   PTCLDY    46  46 100 N5        30.37R
WINONA         PTCLDY    54  52  94 CALM      30.36R
AUSTIN         PTCLDY    48  46  93 N6        30.35S
PRESTON        CLOUDY    50  49  93 N7        30.35R
$$
ABBREVIATIONS USED IN REMARKS
   TC - TEMPERATURES IN CELSIUS
  WCI - WIND CHILL INDEX
   HX - HEAT INDEX
  VSB - VISIBILITY
$$




USA.gov is the U.S. government's official web portal to all federal, state and local government web resources and services.